Year,Month,Day,Hour,Minute,Value (Times are PST for temperature in C)
2009,04,21,00,00,9.00
2009,04,21,00,01,8.90
2009,04,21,00,02,8.90
2009,04,21,00,03,8.90
2009,04,21,00,04,8.90
2009,04,21,00,05,8.80
2009,04,21,00,06,8.80
2009,04,21,00,07,8.80
2009,04,21,00,08,8.80
2009,04,21,00,09,8.80
2009,04,21,00,10,8.80
2009,04,21,00,11,8.70
2009,04,21,00,12,8.70
2009,04,21,01,02,8.20
2009,04,21,01,03,8.20
2009,04,21,01,04,8.10
2009,04,21,01,05,8.10
2009,04,21,01,06,8.10
2009,04,21,01,07,8.10
2009,04,21,01,08,8.00
2009,04,21,01,09,8.00
2009,04,21,01,10,8.00
2009,04,21,01,11,8.00
2009,04,21,01,12,7.90
2009,04,21,01,13,7.90
2009,04,21,01,14,7.90
2009,04,21,01,15,8.00
2009,04,21,01,16,8.00
2009,04,21,01,17,8.10
2009,04,21,01,18,8.10
2009,04,21,01,19,8.20
2009,04,21,01,20,8.20
2009,04,21,01,21,8.20
2009,04,21,01,22,8.20
2009,04,21,01,23,8.20
2009,04,21,01,24,8.20
2009,04,21,01,25,8.20
2009,04,21,01,26,8.20
2009,04,21,01,27,8.10
2009,04,21,01,28,8.10
2009,04,21,01,29,8.20
2009,04,21,01,30,8.20
2009,04,21,01,31,8.10
2009,04,21,01,32,8.10
2009,04,21,01,33,8.10
2009,04,21,01,34,8.10
2009,04,21,01,35,8.10
2009,04,21,01,36,8.00
2009,04,21,01,37,8.00
2009,04,21,01,38,8.00
2009,04,21,01,39,7.90
2009,04,21,01,40,7.90
2009,04,21,01,41,7.90
2009,04,21,01,42,7.80
2009,04,21,01,43,7.80
2009,04,21,01,44,7.80
2009,04,21,01,45,7.70
2009,04,21,01,46,7.70
2009,04,21,01,47,7.60
2009,04,21,01,48,7.60
2009,04,21,01,49,7.60
2009,04,21,01,50,7.60
2009,04,21,01,51,7.60
2009,04,21,01,52,7.50
2009,04,21,01,53,7.50
2009,04,21,01,54,7.50
2009,04,21,01,55,7.50
2009,04,21,01,56,7.50
2009,04,21,01,57,7.40
2009,04,21,01,58,7.40
2009,04,21,01,59,7.40
2009,04,21,02,00,7.40
2009,04,21,02,01,7.40
2009,04,21,02,02,7.30
2009,04,21,02,03,7.30
2009,04,21,02,04,7.30
2009,04,21,02,05,7.30
2009,04,21,02,06,7.30
2009,04,21,02,07,7.30
2009,04,21,02,08,7.20
2009,04,21,02,09,7.20
2009,04,21,02,10,7.20
2009,04,21,02,11,7.20
2009,04,21,02,12,7.20
2009,04,21,02,13,7.20
2009,04,21,02,14,7.20
2009,04,21,02,15,7.20
2009,04,21,02,16,7.20
2009,04,21,02,17,7.30
2009,04,21,02,18,7.30
2009,04,21,02,19,7.30
2009,04,21,02,20,7.30
2009,04,21,02,21,7.30
2009,04,21,02,22,7.20
2009,04,21,02,23,7.20
2009,04,21,02,24,7.20
2009,04,21,02,25,7.20
2009,04,21,02,26,7.20
2009,04,21,02,27,7.20
2009,04,21,02,28,7.10
2009,04,21,02,29,7.10
2009,04,21,02,30,7.10
2009,04,21,02,31,7.10
2009,04,21,02,32,7.10
2009,04,21,02,33,7.10
2009,04,21,02,34,7.10
2009,04,21,02,35,7.10
2009,04,21,02,36,7.10
2009,04,21,02,37,7.10
2009,04,21,02,38,7.10
2009,04,21,02,39,7.10
2009,04,21,02,40,7.10
2009,04,21,02,41,7.00
2009,04,21,02,42,7.00
2009,04,21,02,43,7.00
2009,04,21,02,44,6.90
2009,04,21,02,45,6.90
2009,04,21,02,46,6.90
2009,04,21,02,47,6.90
2009,04,21,02,48,6.90
2009,04,21,02,49,6.80
2009,04,21,02,50,6.80
2009,04,21,02,51,6.80
2009,04,21,02,52,6.80
2009,04,21,02,53,6.80
2009,04,21,02,54,6.80
2009,04,21,02,55,6.80
2009,04,21,02,56,6.80
2009,04,21,02,57,6.70
2009,04,21,02,58,6.70
2009,04,21,02,59,6.70
2009,04,21,03,00,6.70
2009,04,21,03,01,6.70
2009,04,21,03,02,6.70
2009,04,21,03,03,6.70
2009,04,21,03,04,6.70
2009,04,21,03,05,6.70
2009,04,21,03,06,6.70
2009,04,21,03,07,6.70
2009,04,21,03,08,6.60
2009,04,21,03,09,6.60
2009,04,21,03,10,6.60
2009,04,21,03,11,6.60
2009,04,21,03,12,6.60
2009,04,21,03,13,6.60
2009,04,21,03,14,6.60
2009,04,21,03,15,6.50
2009,04,21,03,16,6.60
2009,04,21,03,17,6.50
2009,04,21,03,18,6.50
2009,04,21,03,19,6.50
2009,04,21,03,20,6.50
2009,04,21,03,21,6.40
2009,04,21,03,22,6.40
2009,04,21,03,23,6.40
2009,04,21,03,24,6.40
2009,04,21,03,25,6.30
2009,04,21,03,26,6.30
2009,04,21,03,27,6.30
2009,04,21,03,28,6.30
2009,04,21,03,29,6.30
2009,04,21,03,30,6.30
2009,04,21,03,31,6.30
2009,04,21,03,32,6.40
2009,04,21,03,33,6.40
2009,04,21,03,34,6.40
2009,04,21,03,35,6.40
2009,04,21,03,36,6.40
2009,04,21,03,37,6.40
2009,04,21,03,38,6.40
2009,04,21,03,39,6.40
2009,04,21,03,40,6.40
2009,04,21,03,41,6.40
2009,04,21,03,42,6.40
2009,04,21,03,43,6.40
2009,04,21,03,44,6.40
2009,04,21,03,45,6.40
2009,04,21,03,46,6.40
2009,04,21,03,47,6.40
2009,04,21,03,48,6.40
2009,04,21,03,49,6.40
2009,04,21,03,50,6.40
2009,04,21,03,51,6.30
2009,04,21,03,52,6.30
2009,04,21,03,53,6.30
2009,04,21,03,54,6.30
2009,04,21,03,55,6.30
2009,04,21,03,56,6.30
2009,04,21,03,57,6.20
2009,04,21,03,58,6.20
2009,04,21,03,59,6.20
2009,04,21,04,00,6.20
2009,04,21,04,01,6.30
2009,04,21,04,02,6.30
2009,04,21,04,03,6.30
2009,04,21,04,04,6.30
2009,04,21,04,05,6.30
2009,04,21,04,06,6.20
2009,04,21,04,07,6.20
2009,04,21,04,08,6.20
2009,04,21,04,09,6.20
2009,04,21,04,10,6.20
2009,04,21,04,11,6.20
2009,04,21,04,12,6.20
2009,04,21,04,13,6.20
2009,04,21,04,14,6.20
2009,04,21,04,15,6.10
2009,04,21,04,16,6.10
2009,04,21,04,17,6.10
2009,04,21,04,18,6.10
2009,04,21,04,19,6.10
2009,04,21,04,20,6.10
2009,04,21,04,21,6.10
2009,04,21,04,22,6.10
2009,04,21,04,23,6.10
2009,04,21,04,24,6.10
2009,04,21,04,25,6.10
2009,04,21,04,26,6.10
2009,04,21,04,27,6.10
2009,04,21,04,28,6.00
2009,04,21,04,29,6.00
2009,04,21,04,30,6.00
2009,04,21,04,31,6.00
2009,04,21,04,32,5.90
2009,04,21,04,33,5.90
2009,04,21,04,34,5.90
2009,04,21,04,35,5.90
2009,04,21,04,36,5.90
2009,04,21,04,37,5.80
2009,04,21,04,38,5.80
2009,04,21,04,39,5.80
2009,04,21,04,40,5.80
2009,04,21,04,41,5.80
2009,04,21,04,42,5.70
2009,04,21,04,43,5.70
2009,04,21,04,44,5.70
2009,04,21,04,45,5.70
2009,04,21,04,46,5.70
2009,04,21,04,47,5.70
2009,04,21,04,48,5.70
2009,04,21,04,49,5.60
2009,04,21,04,50,5.60
2009,04,21,04,51,5.60
2009,04,21,04,52,5.60
2009,04,21,04,53,5.60
2009,04,21,04,54,5.50
2009,04,21,04,55,5.50
2009,04,21,04,56,5.50
2009,04,21,04,57,5.50
2009,04,21,04,58,5.50
2009,04,21,04,59,5.60
2009,04,21,05,00,5.60
2009,04,21,05,01,5.60
2009,04,21,05,02,5.60
2009,04,21,05,03,5.60
2009,04,21,05,04,5.70
2009,04,21,05,05,5.70
2009,04,21,05,06,5.70
2009,04,21,05,07,5.70
2009,04,21,05,08,5.70
2009,04,21,05,09,5.70
2009,04,21,05,10,5.70
2009,04,21,05,11,5.70
2009,04,21,05,12,5.60
2009,04,21,05,13,5.60
2009,04,21,05,14,5.60
2009,04,21,05,15,5.60
2009,04,21,05,16,5.60
2009,04,21,05,17,5.60
2009,04,21,05,18,5.50
2009,04,21,05,19,5.50
2009,04,21,05,20,5.50
2009,04,21,05,21,5.40
2009,04,21,05,22,5.40
2009,04,21,05,23,5.40
2009,04,21,05,24,5.40
2009,04,21,05,25,5.40
2009,04,21,05,26,5.40
2009,04,21,05,27,5.40
2009,04,21,05,28,5.40
2009,04,21,05,29,5.40
2009,04,21,05,30,5.30
2009,04,21,05,31,5.30
2009,04,21,05,32,5.30
2009,04,21,05,33,5.30
2009,04,21,05,34,5.30
2009,04,21,05,35,5.30
2009,04,21,05,36,5.30
2009,04,21,05,37,5.30
2009,04,21,05,38,5.20
2009,04,21,05,39,5.20
2009,04,21,05,40,5.20
2009,04,21,05,41,5.20
2009,04,21,05,42,5.20
2009,04,21,05,43,5.20
2009,04,21,05,44,5.20
2009,04,21,05,45,5.10
2009,04,21,05,46,5.10
2009,04,21,05,47,5.10
2009,04,21,05,48,5.10
2009,04,21,05,49,5.20
2009,04,21,05,50,5.20
2009,04,21,05,51,5.20
2009,04,21,05,52,5.30
2009,04,21,05,53,5.30
2009,04,21,05,54,5.30
2009,04,21,05,55,5.30
2009,04,21,05,56,5.30
2009,04,21,05,57,5.30
2009,04,21,05,58,5.30
2009,04,21,05,59,5.20
2009,04,21,06,00,5.20
2009,04,21,06,01,5.20
2009,04,21,06,02,5.20
2009,04,21,06,03,5.10
2009,04,21,06,04,5.10
2009,04,21,06,05,5.10
2009,04,21,06,06,5.10
2009,04,21,06,07,5.10
2009,04,21,06,08,5.20
2009,04,21,06,09,5.20
2009,04,21,06,10,5.20
2009,04,21,06,11,5.20
2009,04,21,06,12,5.20
2009,04,21,06,13,5.20
2009,04,21,06,14,5.20
2009,04,21,06,15,5.20
2009,04,21,06,16,5.20
2009,04,21,06,17,5.20
2009,04,21,06,18,5.20
2009,04,21,06,19,5.20
2009,04,21,06,20,5.20
2009,04,21,06,21,5.10
2009,04,21,06,22,5.10
2009,04,21,06,23,5.10
2009,04,21,06,24,5.10
2009,04,21,06,25,5.10
2009,04,21,06,26,5.10
2009,04,21,06,27,5.10
2009,04,21,06,28,5.00
2009,04,21,06,29,5.00
2009,04,21,06,30,5.00
2009,04,21,06,31,4.90
2009,04,21,06,32,4.90
2009,04,21,06,33,4.90
2009,04,21,06,34,4.90
2009,04,21,06,35,4.90
2009,04,21,06,36,4.90
2009,04,21,06,37,4.90
2009,04,21,06,38,4.90
2009,04,21,06,39,4.90
2009,04,21,06,40,4.90
2009,04,21,06,41,4.90
2009,04,21,06,42,4.90
2009,04,21,06,43,4.90
2009,04,21,06,44,4.90
2009,04,21,06,45,4.90
2009,04,21,06,46,4.90
2009,04,21,06,47,4.90
2009,04,21,06,48,4.90
2009,04,21,06,49,4.90
2009,04,21,06,50,4.90
2009,04,21,06,51,4.90
2009,04,21,06,52,4.90
2009,04,21,06,53,4.90
2009,04,21,06,54,4.90
2009,04,21,06,55,4.90
2009,04,21,06,56,4.90
2009,04,21,06,57,4.90
2009,04,21,06,58,4.90
2009,04,21,06,59,5.00
2009,04,21,07,00,5.00
2009,04,21,07,01,5.00
2009,04,21,07,02,5.00
2009,04,21,07,03,5.10
2009,04,21,07,04,5.10
2009,04,21,07,05,5.10
2009,04,21,07,06,5.10
2009,04,21,07,07,5.10
2009,04,21,07,08,5.10
2009,04,21,07,09,5.20
2009,04,21,07,10,5.20
2009,04,21,07,11,5.20
2009,04,21,07,12,5.20
2009,04,21,07,13,5.20
2009,04,21,07,14,5.20
2009,04,21,07,15,5.20
2009,04,21,07,16,5.30
2009,04,21,07,17,5.30
2009,04,21,07,18,5.30
2009,04,21,07,19,5.40
2009,04,21,07,20,5.50
2009,04,21,07,21,5.50
2009,04,21,07,22,5.60
2009,04,21,07,23,5.70
2009,04,21,07,24,5.70
2009,04,21,07,25,5.70
2009,04,21,07,26,5.70
2009,04,21,07,27,5.80
2009,04,21,07,28,5.80
2009,04,21,07,29,5.80
2009,04,21,07,30,5.90
2009,04,21,07,31,5.90
2009,04,21,07,32,6.00
2009,04,21,07,33,6.10
2009,04,21,07,34,6.20
2009,04,21,07,35,6.20
2009,04,21,07,36,6.30
2009,04,21,07,37,6.30
2009,04,21,07,38,6.30
2009,04,21,07,39,6.30
2009,04,21,07,40,6.30
2009,04,21,07,41,6.30
2009,04,21,07,42,6.40
2009,04,21,07,43,6.40
2009,04,21,07,44,6.40
2009,04,21,07,45,6.40
2009,04,21,07,46,6.50
2009,04,21,07,47,6.50
2009,04,21,07,48,6.60
2009,04,21,07,49,6.60
2009,04,21,07,50,6.70
2009,04,21,07,51,6.70
2009,04,21,07,52,6.80
2009,04,21,07,53,6.80
2009,04,21,07,54,6.90
2009,04,21,07,55,6.90
2009,04,21,07,56,7.00
2009,04,21,07,57,7.10
2009,04,21,07,58,7.10
2009,04,21,07,59,7.20
2009,04,21,08,00,7.30
2009,04,21,08,01,7.40
2009,04,21,08,02,7.50
2009,04,21,08,03,7.70
2009,04,21,08,04,7.80
2009,04,21,08,05,8.00
2009,04,21,08,06,8.10
2009,04,21,08,07,8.10
2009,04,21,08,08,8.20
2009,04,21,08,09,8.30
2009,04,21,08,10,8.30
2009,04,21,08,11,8.40
2009,04,21,08,12,8.40
2009,04,21,08,13,8.50
2009,04,21,08,14,8.50
2009,04,21,08,15,8.60
2009,04,21,08,16,8.70
2009,04,21,08,17,8.80
2009,04,21,08,18,8.80
2009,04,21,08,19,8.90
2009,04,21,08,20,9.00
2009,04,21,08,21,9.10
2009,04,21,08,22,9.20
2009,04,21,08,23,9.20
2009,04,21,08,24,9.30
2009,04,21,08,25,9.40
2009,04,21,08,26,9.50
2009,04,21,08,27,9.60
2009,04,21,08,28,9.60
2009,04,21,08,29,9.70
2009,04,21,08,30,9.80
2009,04,21,08,31,10.00
2009,04,21,08,32,10.10
2009,04,21,08,33,10.20
2009,04,21,08,34,10.30
2009,04,21,08,35,10.30
2009,04,21,08,36,10.40
2009,04,21,08,37,10.50
2009,04,21,08,38,10.50
2009,04,21,08,39,10.60
2009,04,21,08,40,10.70
2009,04,21,08,41,10.70
2009,04,21,08,42,10.80
2009,04,21,08,43,10.80
2009,04,21,08,44,10.90
2009,04,21,08,45,11.00
2009,04,21,08,46,11.00
2009,04,21,08,47,11.10
2009,04,21,08,48,11.20
2009,04,21,08,49,11.20
2009,04,21,08,50,11.30
2009,04,21,08,51,11.40
2009,04,21,08,52,11.50
2009,04,21,08,53,11.50
2009,04,21,08,54,11.60
2009,04,21,08,55,11.70
2009,04,21,08,56,11.80
2009,04,21,08,57,11.90
2009,04,21,08,58,12.00
2009,04,21,08,59,12.00
2009,04,21,09,00,12.10
2009,04,21,09,01,12.20
2009,04,21,09,02,12.30
2009,04,21,09,03,12.40
2009,04,21,09,04,12.50
2009,04,21,09,05,12.60
2009,04,21,09,06,12.70
2009,04,21,09,07,12.80
2009,04,21,09,08,12.90
2009,04,21,09,09,12.90
2009,04,21,09,10,13.00
2009,04,21,09,11,13.10
2009,04,21,09,12,13.20
2009,04,21,09,13,13.30
2009,04,21,09,14,13.40
2009,04,21,09,15,13.60
2009,04,21,09,16,13.80
2009,04,21,09,17,13.90
2009,04,21,09,18,14.00
2009,04,21,09,19,14.10
2009,04,21,09,20,14.20
2009,04,21,09,21,14.20
2009,04,21,09,22,14.30
2009,04,21,09,23,14.30
2009,04,21,09,24,14.30
2009,04,21,09,25,14.40
2009,04,21,09,26,14.40
2009,04,21,09,27,14.40
2009,04,21,09,28,14.40
2009,04,21,09,29,14.40
2009,04,21,09,30,14.50
2009,04,21,09,31,14.60
2009,04,21,09,32,14.60
2009,04,21,09,33,14.70
2009,04,21,09,34,14.70
2009,04,21,09,35,14.70
2009,04,21,09,36,14.70
2009,04,21,09,37,14.70
2009,04,21,09,38,14.70
2009,04,21,09,39,14.70
2009,04,21,09,40,14.80
2009,04,21,09,41,14.90
2009,04,21,09,42,15.00
2009,04,21,09,43,15.00
2009,04,21,09,44,15.00
2009,04,21,09,45,15.00
2009,04,21,09,46,15.00
2009,04,21,09,47,15.00
2009,04,21,09,48,15.00
2009,04,21,09,49,15.00
2009,04,21,09,50,15.00
2009,04,21,09,51,15.00
2009,04,21,09,52,15.00
2009,04,21,09,53,15.00
2009,04,21,09,54,15.00
2009,04,21,09,55,14.90
2009,04,21,09,56,14.90
2009,04,21,09,57,14.80
2009,04,21,09,58,14.80
2009,04,21,09,59,14.80
2009,04,21,10,00,14.80
2009,04,21,10,01,14.80
2009,04,21,10,02,14.80
2009,04,21,10,03,14.80
2009,04,21,10,04,14.80
2009,04,21,10,05,14.90
2009,04,21,10,06,14.80
2009,04,21,10,07,14.80
2009,04,21,10,08,14.90
2009,04,21,10,09,14.90
2009,04,21,10,10,14.90
2009,04,21,10,11,14.90
2009,04,21,10,12,15.00
2009,04,21,10,13,15.00
2009,04,21,10,14,15.00
2009,04,21,10,15,15.00
2009,04,21,10,16,15.00
2009,04,21,10,17,15.00
2009,04,21,10,18,15.00
2009,04,21,10,19,15.00
2009,04,21,10,20,15.00
2009,04,21,10,21,15.00
2009,04,21,10,22,15.10
2009,04,21,10,23,15.20
2009,04,21,10,24,15.30
2009,04,21,10,25,15.30
2009,04,21,10,26,15.30
2009,04,21,10,27,15.30
2009,04,21,10,28,15.30
2009,04,21,10,29,15.30
2009,04,21,10,30,15.20
2009,04,21,10,31,15.10
2009,04,21,10,32,15.10
2009,04,21,10,33,15.20
2009,04,21,10,34,15.20
2009,04,21,10,35,15.20
2009,04,21,10,36,15.20
2009,04,21,10,37,15.30
2009,04,21,10,38,15.30
2009,04,21,10,39,15.40
2009,04,21,10,40,15.40
2009,04,21,10,41,15.50
2009,04,21,10,42,15.60
2009,04,21,10,43,15.60
2009,04,21,10,44,15.50
2009,04,21,10,45,15.50
2009,04,21,10,46,15.40
2009,04,21,10,47,15.30
2009,04,21,10,48,15.30
2009,04,21,10,49,15.40
2009,04,21,10,50,15.50
2009,04,21,10,51,15.60
2009,04,21,10,52,15.80
2009,04,21,10,53,16.00
2009,04,21,10,54,16.20
2009,04,21,10,55,16.40
2009,04,21,10,56,16.50
2009,04,21,10,57,16.60
2009,04,21,10,58,16.60
2009,04,21,10,59,16.50
2009,04,21,11,00,16.50
2009,04,21,11,01,16.40
2009,04,21,11,02,16.40
2009,04,21,11,03,16.50
2009,04,21,11,04,16.50
2009,04,21,11,05,16.60
2009,04,21,11,06,16.60
2009,04,21,11,07,16.60
2009,04,21,11,08,16.60
2009,04,21,11,09,16.70
2009,04,21,11,10,16.70
2009,04,21,11,11,16.80
2009,04,21,11,12,16.90
2009,04,21,11,13,16.90
2009,04,21,11,14,16.80
2009,04,21,11,15,16.80
2009,04,21,11,16,16.90
2009,04,21,11,17,16.90
2009,04,21,11,18,17.00
2009,04,21,11,19,17.00
2009,04,21,11,20,17.00
2009,04,21,11,21,17.00
2009,04,21,11,22,17.00
2009,04,21,11,23,17.10
2009,04,21,11,24,17.20
2009,04,21,11,25,17.20
2009,04,21,11,26,17.20
2009,04,21,11,27,17.30
2009,04,21,11,28,17.40
2009,04,21,11,29,17.50
2009,04,21,11,30,17.40
2009,04,21,11,31,17.40
2009,04,21,11,32,17.40
2009,04,21,11,33,17.40
2009,04,21,11,34,17.40
2009,04,21,11,35,17.40
2009,04,21,11,36,17.30
2009,04,21,11,37,17.30
2009,04,21,11,38,17.30
2009,04,21,11,39,17.30
2009,04,21,11,40,17.40
2009,04,21,11,41,17.50
2009,04,21,11,42,17.50
2009,04,21,11,43,17.50
2009,04,21,11,44,17.40
2009,04,21,11,45,17.40
2009,04,21,11,46,17.40
2009,04,21,11,47,17.40
2009,04,21,11,48,17.30
2009,04,21,11,49,17.30
2009,04,21,11,50,17.40
2009,04,21,11,51,17.50
2009,04,21,11,52,17.50
2009,04,21,11,53,17.50
2009,04,21,11,54,17.40
2009,04,21,11,55,17.30
2009,04,21,11,56,17.40
2009,04,21,11,57,17.50
2009,04,21,11,58,17.50
2009,04,21,11,59,17.60
2009,04,21,12,00,17.70
2009,04,21,12,01,17.70
2009,04,21,12,02,17.80
2009,04,21,12,03,17.80
2009,04,21,12,04,17.70
2009,04,21,12,05,17.60
2009,04,21,12,06,17.60
2009,04,21,12,07,17.50
2009,04,21,12,08,17.60
2009,04,21,12,09,17.70
2009,04,21,12,10,17.70
2009,04,21,12,11,17.80
2009,04,21,12,12,17.70
2009,04,21,12,13,17.60
2009,04,21,12,14,17.60
2009,04,21,12,15,17.60
2009,04,21,12,16,17.50
2009,04,21,12,17,17.50
2009,04,21,12,18,17.40
2009,04,21,12,19,17.40
2009,04,21,12,20,17.40
2009,04,21,12,21,17.40
2009,04,21,12,22,17.50
2009,04,21,12,23,17.50
2009,04,21,12,24,17.40
2009,04,21,12,25,17.50
2009,04,21,12,26,17.40
2009,04,21,12,27,17.40
2009,04,21,12,28,17.40
2009,04,21,12,29,17.40
2009,04,21,12,30,17.50
2009,04,21,12,31,17.60
2009,04,21,12,32,17.60
2009,04,21,12,33,17.60
2009,04,21,12,34,17.70
2009,04,21,12,35,17.70
2009,04,21,12,36,17.90
2009,04,21,12,37,18.00
2009,04,21,12,38,18.10
2009,04,21,12,39,18.20
2009,04,21,12,40,18.20
2009,04,21,12,41,18.20
2009,04,21,12,42,18.20
2009,04,21,12,43,18.20
2009,04,21,12,44,18.30
2009,04,21,12,45,18.40
2009,04,21,12,46,18.40
2009,04,21,12,47,18.40
2009,04,21,12,48,18.50
2009,04,21,12,49,18.50
2009,04,21,12,50,18.60
2009,04,21,12,51,18.70
2009,04,21,12,52,18.70
2009,04,21,12,53,18.60
2009,04,21,12,54,18.60
2009,04,21,12,55,18.70
2009,04,21,12,56,18.70
2009,04,21,12,57,18.80
2009,04,21,12,58,18.90
2009,04,21,12,59,18.90
2009,04,21,13,00,18.80
2009,04,21,13,01,18.90
2009,04,21,13,02,18.90
2009,04,21,13,03,18.90
2009,04,21,13,04,19.10
2009,04,21,13,05,19.20
2009,04,21,13,06,19.30
2009,04,21,13,07,19.30
2009,04,21,13,08,19.40
2009,04,21,13,09,19.40
2009,04,21,13,10,19.40
2009,04,21,13,11,19.30
2009,04,21,13,12,19.30
2009,04,21,13,13,19.30
2009,04,21,13,14,19.30
2009,04,21,13,15,19.20
2009,04,21,13,16,19.10
2009,04,21,13,17,19.10
2009,04,21,13,18,19.20
2009,04,21,13,19,19.30
2009,04,21,13,20,19.40
2009,04,21,13,21,19.50
2009,04,21,13,22,19.60
2009,04,21,13,23,19.60
2009,04,21,13,24,19.60
2009,04,21,13,25,19.50
2009,04,21,13,26,19.40
2009,04,21,13,27,19.50
2009,04,21,13,28,19.60
2009,04,21,13,29,19.70
2009,04,21,13,30,19.70
2009,04,21,13,31,19.60
2009,04,21,13,32,19.60
2009,04,21,13,33,19.70
2009,04,21,13,34,19.70
2009,04,21,13,35,19.70
2009,04,21,13,36,19.70
2009,04,21,13,37,19.80
2009,04,21,13,38,19.80
2009,04,21,13,39,19.80
2009,04,21,13,40,19.90
2009,04,21,13,41,20.00
2009,04,21,13,42,20.10
2009,04,21,13,43,20.10
2009,04,21,13,44,20.00
2009,04,21,13,45,19.90
2009,04,21,13,46,19.80
2009,04,21,13,47,19.80
2009,04,21,13,48,19.70
2009,04,21,13,49,19.60
2009,04,21,13,50,19.60
2009,04,21,13,51,19.60
2009,04,21,13,52,19.70
2009,04,21,13,53,19.80
2009,04,21,13,54,20.00
2009,04,21,13,55,20.10
2009,04,21,13,56,20.10
2009,04,21,13,57,20.00
2009,04,21,13,58,20.00
2009,04,21,13,59,19.90
2009,04,21,14,00,19.90
2009,04,21,14,01,19.80
2009,04,21,14,02,19.80
2009,04,21,14,03,19.90
2009,04,21,14,04,20.00
2009,04,21,14,05,20.20
2009,04,21,14,06,20.30
2009,04,21,14,07,20.30
2009,04,21,14,08,20.20
2009,04,21,14,09,20.20
2009,04,21,14,10,20.10
2009,04,21,14,11,20.10
2009,04,21,14,12,20.00
2009,04,21,14,13,19.90
2009,04,21,14,14,19.90
2009,04,21,14,15,19.90
2009,04,21,14,16,20.00
2009,04,21,14,17,20.00
2009,04,21,14,18,20.10
2009,04,21,14,19,20.10
2009,04,21,14,20,20.10
2009,04,21,14,21,20.10
2009,04,21,14,22,20.20
2009,04,21,14,23,20.30
2009,04,21,14,24,20.30
2009,04,21,14,25,20.40
2009,04,21,14,26,20.50
2009,04,21,14,27,20.50
2009,04,21,14,28,20.50
2009,04,21,14,29,20.60
2009,04,21,14,30,20.60
2009,04,21,14,31,20.50
2009,04,21,14,32,20.50
2009,04,21,14,33,20.40
2009,04,21,14,34,20.40
2009,04,21,14,35,20.40
2009,04,21,14,36,20.50
2009,04,21,14,37,20.40
2009,04,21,14,38,20.40
2009,04,21,14,39,20.40
2009,04,21,14,40,20.40
2009,04,21,14,41,20.40
2009,04,21,14,42,20.30
2009,04,21,14,43,20.30
2009,04,21,14,44,20.30
2009,04,21,14,45,20.20
2009,04,21,14,46,20.20
2009,04,21,14,47,20.10
2009,04,21,14,48,20.10
2009,04,21,14,49,20.20
2009,04,21,14,50,20.20
2009,04,21,14,51,20.10
2009,04,21,14,52,20.10
2009,04,21,14,53,20.20
2009,04,21,14,54,20.30
2009,04,21,14,55,20.30
2009,04,21,14,56,20.20
2009,04,21,14,57,20.20
2009,04,21,14,58,20.10
2009,04,21,14,59,20.00
2009,04,21,15,00,20.00
2009,04,21,15,01,20.10
2009,04,21,15,02,20.10
2009,04,21,15,03,20.20
2009,04,21,15,04,20.20
2009,04,21,15,05,20.10
2009,04,21,15,06,20.10
2009,04,21,15,07,20.10
2009,04,21,15,08,20.10
2009,04,21,15,09,20.20
2009,04,21,15,10,20.30
2009,04,21,15,11,20.30
2009,04,21,15,12,20.30
2009,04,21,15,13,20.30
2009,04,21,15,14,20.30
2009,04,21,15,15,20.30
2009,04,21,15,16,20.30
2009,04,21,15,17,20.30
2009,04,21,15,18,20.20
2009,04,21,15,19,20.00
2009,04,21,15,20,19.90
2009,04,21,15,21,19.90
2009,04,21,15,22,20.00
2009,04,21,15,23,20.10
2009,04,21,15,24,20.20
2009,04,21,15,25,20.20
2009,04,21,15,26,20.20
2009,04,21,15,27,20.20
2009,04,21,15,28,20.10
2009,04,21,15,29,20.00
2009,04,21,15,30,19.90
2009,04,21,15,31,19.80
2009,04,21,15,32,19.80
2009,04,21,15,33,19.90
2009,04,21,15,34,19.90
2009,04,21,15,35,20.00
2009,04,21,15,36,20.00
2009,04,21,15,37,20.10
2009,04,21,15,38,20.10
2009,04,21,15,39,20.10
2009,04,21,15,40,20.10
2009,04,21,15,41,20.20
2009,04,21,15,42,20.10
2009,04,21,15,43,20.20
2009,04,21,15,44,20.20
2009,04,21,15,45,20.20
2009,04,21,15,46,20.20
2009,04,21,15,47,20.10
2009,04,21,15,48,20.10
2009,04,21,15,49,20.10
2009,04,21,15,50,20.20
2009,04,21,15,51,20.20
2009,04,21,15,52,20.20
2009,04,21,15,53,20.20
2009,04,21,15,54,20.10
2009,04,21,15,55,20.10
2009,04,21,15,56,20.10
2009,04,21,15,57,20.10
2009,04,21,15,58,20.20
2009,04,21,15,59,20.10
2009,04,21,16,00,20.00
2009,04,21,16,01,20.00
2009,04,21,16,02,19.90
2009,04,21,16,03,19.90
2009,04,21,16,04,19.80
2009,04,21,16,05,19.80
2009,04,21,16,06,19.70
2009,04,21,16,07,19.70
2009,04,21,16,08,19.70
2009,04,21,16,09,19.80
2009,04,21,16,10,19.90
2009,04,21,16,11,20.00
2009,04,21,16,12,20.00
2009,04,21,16,13,20.00
2009,04,21,16,14,20.10
2009,04,21,16,15,20.10
2009,04,21,16,16,20.10
2009,04,21,16,17,20.00
2009,04,21,16,18,20.00
2009,04,21,16,19,20.00
2009,04,21,16,20,20.00
2009,04,21,16,21,19.80
2009,04,21,16,22,19.60
2009,04,21,16,23,19.50
2009,04,21,16,24,19.50
2009,04,21,16,25,19.40
2009,04,21,16,26,19.40
2009,04,21,16,27,19.50
2009,04,21,16,28,19.50
2009,04,21,16,29,19.50
2009,04,21,16,30,19.50
2009,04,21,16,31,19.50
2009,04,21,16,32,19.40
2009,04,21,16,33,19.40
2009,04,21,16,34,19.30
2009,04,21,16,35,19.30
2009,04,21,16,36,19.20
2009,04,21,16,37,19.10
2009,04,21,16,38,19.00
2009,04,21,16,39,18.90
2009,04,21,16,40,18.90
2009,04,21,16,41,19.00
2009,04,21,16,42,19.10
2009,04,21,16,43,19.10
2009,04,21,16,44,19.00
2009,04,21,16,45,18.90
2009,04,21,16,46,18.80
2009,04,21,16,47,18.70
2009,04,21,16,48,18.70
2009,04,21,16,49,18.80
2009,04,21,16,50,18.80
2009,04,21,16,51,18.90
2009,04,21,16,52,18.90
2009,04,21,16,53,18.90
2009,04,21,16,54,18.80
2009,04,21,16,55,18.90
2009,04,21,16,56,18.90
2009,04,21,16,57,18.90
2009,04,21,16,58,18.90
2009,04,21,16,59,18.90
2009,04,21,17,00,18.80
2009,04,21,17,01,18.80
2009,04,21,17,02,18.70
2009,04,21,17,03,18.60
2009,04,21,17,04,18.60
2009,04,21,17,05,18.70
2009,04,21,17,06,18.80
2009,04,21,17,07,18.70
2009,04,21,17,08,18.70
2009,04,21,17,09,18.70
2009,04,21,17,10,18.70
2009,04,21,17,11,18.60
2009,04,21,17,12,18.50
2009,04,21,17,13,18.50
2009,04,21,17,14,18.50
2009,04,21,17,15,18.50
2009,04,21,17,16,18.50
2009,04,21,17,17,18.50
2009,04,21,17,18,18.50
2009,04,21,17,19,18.50
2009,04,21,17,20,18.50
2009,04,21,17,21,18.50
2009,04,21,17,22,18.40
2009,04,21,17,23,18.40
2009,04,21,17,24,18.30
2009,04,21,17,25,18.30
2009,04,21,17,26,18.20
2009,04,21,17,27,18.20
2009,04,21,17,28,18.20
2009,04,21,17,29,18.30
2009,04,21,17,30,18.30
2009,04,21,17,31,18.30
2009,04,21,17,32,18.30
2009,04,21,17,33,18.40
2009,04,21,17,34,18.30
2009,04,21,17,35,18.20
2009,04,21,17,36,18.20
2009,04,21,17,37,18.10
2009,04,21,17,38,17.90
2009,04,21,17,39,17.80
2009,04,21,17,40,17.70
2009,04,21,17,41,17.60
2009,04,21,17,42,17.50
2009,04,21,17,43,17.40
2009,04,21,17,44,17.40
2009,04,21,17,45,17.40
2009,04,21,17,46,17.50
2009,04,21,17,47,17.50
2009,04,21,17,48,17.50
2009,04,21,17,49,17.40
2009,04,21,17,50,17.40
2009,04,21,17,51,17.30
2009,04,21,17,52,17.30
2009,04,21,17,53,17.30
2009,04,21,17,54,17.30
2009,04,21,17,55,17.30
2009,04,21,17,56,17.30
2009,04,21,17,57,17.20
2009,04,21,17,58,17.20
2009,04,21,17,59,17.10
2009,04,21,18,00,17.10
2009,04,21,18,01,17.00
2009,04,21,18,02,16.90
2009,04,21,18,03,16.90
2009,04,21,18,04,16.90
2009,04,21,18,05,16.90
2009,04,21,18,06,16.90
2009,04,21,18,07,16.80
2009,04,21,18,08,16.80
2009,04,21,18,09,16.70
2009,04,21,18,10,16.70
2009,04,21,18,11,16.70
2009,04,21,18,12,16.60
2009,04,21,18,13,16.60
2009,04,21,18,14,16.50
2009,04,21,18,15,16.40
2009,04,21,18,16,16.30
2009,04,21,18,17,16.30
2009,04,21,18,18,16.30
2009,04,21,18,19,16.30
2009,04,21,18,20,16.30
2009,04,21,18,21,16.30
2009,04,21,18,22,16.30
2009,04,21,18,23,16.20
2009,04,21,18,24,16.10
2009,04,21,18,25,16.00
2009,04,21,18,26,16.00
2009,04,21,18,27,15.90
2009,04,21,18,28,15.80